Location: Miss�
(46.9484°N, 0.1922°W)
Time: 01:52:39
(UTC+00:00)

Cosmos 1844 Rocket - Pass Details

Date: 02 March 2021
Orbit: 826 x 843 km, 71.0° (Epoch: 17 April)

Event Time Altitude Azimuth Distance (km) Brightness Sun altitude
Rises 18:38:19 0° 336° (NNW) 3,376 6.2 -9.4°
Reaches altitude 10° 18:40:54 10° 344° (NNW) 2,438 5.3 -9.8°
Maximum altitude 18:46:11 42° 55° (NE) 1,170 3.1 -10.7°
Drops below altitude 10° 18:51:26 10° 125° (SE) 2,426 4.6 -11.6°
Enters shadow 18:51:31 10° 126° (SE) 2,453 4.6 -11.6°
